FW5810 Weather Reports


time (UTC)temp
F
wind
direction
speed
knots
gust
knots
rain 1hr
in
rain 24hr
in
rain mn
in
humidity
%
barometer
mb
20260505014255 66 233 2.6 6.1 0.00 0.00 0.00 53 1006.8
20260505013751 66 217 4.3 7.0 0.00 0.00 0.00 53 1006.7
20260505013248 66 185 2.6 8.7 0.00 0.00 0.00 52 1006.9
20260505012746 66 215 2.6 12.2 0.00 0.00 0.00 52 1006.8
20260505012238 67 234 4.3 8.7 0.00 0.00 0.00 52 1006.8
20260505011733 67 183 3.5 7.0 0.00 0.00 0.00 51 1006.3
20260505011231 67 214 8.7 10.4 0.00 0.00 0.00 51 1006.5
20260505010726 67 193 6.1 13.0 0.00 0.00 0.00 51 1006.3
20260505010223 67 193 6.1 13.0 0.00 0.00 0.00 51 1006.3
20260505005720 67 114 3.5 10.4 0.00 0.00 0.00 51 1006.4
20260505005217 67 197 7.0 7.0 0.00 0.00 0.00 51 1006.4
20260505004714 68 142 7.0 8.7 0.00 0.00 0.00 50 1006.1
20260505004210 68 244 6.1 8.7 0.00 0.00 0.00 50 1006.2
20260505003708 68 228 6.1 9.6 0.00 0.00 0.00 49 1006.1
20260505003206 68 203 2.6 10.4 0.00 0.00 0.00 49 1006.0
20260505002701 68 247 5.2 7.0 0.00 0.00 0.00 49 1005.9
20260505002159 69 218 2.6 4.3 0.00 0.00 0.00 48 1005.8
20260505001656 68 174 6.1 12.2 0.00 0.00 0.00 48 1005.7
20260505001154 69 238 4.3 6.1 0.00 0.00 0.00 47 1005.7
20260505000650 69 186 5.2 12.2 0.00 0.00 0.00 47 1005.7
20260505000148 69 276 6.1 9.6 0.00 0.00 0.00 47 1005.6
20260504235644 69 261 5.2 7.0 0.00 0.00 0.00 47 1005.5
20260504235141 69 213 3.5 6.1 0.00 0.00 0.00 48 1005.5
20260504234638 69 202 3.5 9.6 0.00 0.00 0.00 47 1005.5
20260504234130 70 213 10.4 15.6 0.00 0.00 0.00 46 1005.5
20260504233625 70 202 7.8 13.0 0.00 0.00 0.00 47 1005.3
20260504233121 70 175 5.2 8.7 0.00 0.00 0.00 48 1005.5
20260504232620 70 276 7.0 10.4 0.00 0.00 0.00 46 1005.5
20260504232116 70 237 11.3 15.6 0.00 0.00 0.00 47 1005.4
20260504231613 71 224 2.6 7.0 0.00 0.00 0.00 47 1005.5
20260504231109 71 196 6.1 13.9 0.00 0.00 0.00 46 1005.4
20260504230605 71 263 12.2 19.1 0.00 0.00 0.00 46 1005.6
20260504230104 71 215 6.1 9.6 0.00 0.00 0.00 46 1005.5
20260504225602 71 217 5.2 12.2 0.00 0.00 0.00 46 1005.8
20260504225058 71 242 9.6 12.2 0.00 0.00 0.00 47 1005.7
20260504224555 70 227 3.5 9.6 0.00 0.00 0.00 47 1005.8
20260504224052 70 218 2.6 9.6 0.00 0.00 0.00 48 1005.9
20260504223549 70 206 5.2 6.1 0.00 0.00 0.00 48 1005.8
20260504223044 70 185 4.3 10.4 0.00 0.00 0.00 47 1006.0
20260504222542 70 202 6.1 12.2 0.00 0.00 0.00 47 1006.1
20260504222039 70 265 9.6 13.0 0.00 0.00 0.00 46 1006.0
20260504221536 71 225 5.2 13.0 0.00 0.00 0.00 47 1006.1
20260504221033 71 203 3.5 12.2 0.00 0.00 0.00 47 1006.1
20260504220529 71 215 9.6 12.2 0.00 0.00 0.00 46 1006.2
20260504220026 70 216 2.6 6.1 0.00 0.00 0.00 48 1006.1
20260504215523 70 206 4.3 7.0 0.00 0.00 0.00 47 1006.2
20260504215020 71 219 5.2 16.5 0.00 0.00 0.00 46 1006.1
20260504214516 71 209 3.5 8.7 0.00 0.00 0.00 46 1006.1
20260504214012 72 222 6.1 15.6 0.00 0.00 0.00 45 1006.0
20260504213509 72 231 9.6 15.6 0.00 0.00 0.00 44 1006.0
20260504213007 72 209 6.1 10.4 0.00 0.00 0.00 45 1006.3
20260504212502 72 273 7.0 10.4 0.00 0.00 0.00 45 1006.3
20260504212000 71 264 2.6 3.5 0.00 0.00 0.00 47 1006.2
20260504211456 70 274 4.3 13.0 0.00 0.00 0.00 45 1006.4
20260504210954 70 226 7.8 15.6 0.00 0.00 0.00 45 1006.2
20260504210450 70 227 9.6 10.4 0.00 0.00 0.00 44 1006.4
20260504205947 71 190 7.8 13.0 0.00 0.00 0.00 44 1006.3
20260504205445 71 241 7.8 13.0 0.00 0.00 0.00 45 1006.5
20260504204943 72 264 3.5 13.0 0.00 0.00 0.00 44 1006.2
20260504204441 71 210 5.2 8.7 0.00 0.00 0.00 44 1006.3
20260504203940 71 210 9.6 12.2 0.00 0.00 0.00 43 1006.4
20260504203437 72 236 7.8 10.4 0.00 0.00 0.00 42 1006.6
20260504202933 72 264 4.3 6.1 0.00 0.00 0.00 45 1006.4
20260504202430 73 206 4.3 10.4 0.00 0.00 0.00 43 1006.4
20260504201926 72 147 4.3 9.6 0.00 0.00 0.00 42 1006.5
20260504201424 72 171 6.1 9.6 0.00 0.00 0.00 41 1006.6
20260504200921 72 226 4.3 12.2 0.00 0.00 0.00 43 1006.4
20260504200418 72 213 7.8 13.0 0.00 0.00 0.00 42 1006.6
20260504195915 72 215 5.2 7.0 0.00 0.00 0.00 42 1006.7
20260504195410 72 219 5.2 8.7 0.00 0.00 0.00 45 1006.9
20260504194907 72 213 5.2 9.6 0.00 0.00 0.00 42 1006.7
20260504194403 72 194 7.0 12.2 0.00 0.00 0.00 42 1006.9
20260504193859 72 214 6.1 12.2 0.00 0.00 0.00 45 1006.9
20260504193356 71 201 7.8 10.4 0.00 0.00 0.00 43 1007.1
20260504192855 71 224 7.8 10.4 0.00 0.00 0.00 43 1007.4
20260504192352 71 220 6.1 10.4 0.00 0.00 0.00 45 1007.1
20260504191850 71 212 7.0 13.0 0.00 0.00 0.00 45 1007.4
20260504191348 71 260 8.7 12.2 0.00 0.00 0.00 41 1007.4
20260504190843 70 177 7.0 10.4 0.00 0.00 0.00 44 1007.6
20260504190339 71 187 8.7 13.0 0.00 0.00 0.00 45 1007.6
20260504185836 71 233 2.6 6.1 0.00 0.00 0.00 45 1007.5
20260504185333 71 198 4.3 7.0 0.00 0.00 0.00 43 1007.6
20260504184829 71 261 4.3 15.6 0.00 0.00 0.00 43 1007.7
20260504184326 70 154 4.3 8.7 0.00 0.00 0.00 45 1007.9
20260504183821 70 223 5.2 10.4 0.00 0.00 0.00 44 1007.7
20260504183319 69 207 8.7 13.9 0.00 0.00 0.00 44 1007.8
20260504182817 69 116 9.6 10.4 0.00 0.00 0.00 43 1007.7
20260504182314 69 214 7.8 13.0 0.00 0.00 0.00 43 1007.9
20260504181811 69 277 3.5 12.2 0.00 0.00 0.00 44 1008.0
20260504181308 69 247 7.0 13.9 0.00 0.00 0.00 42 1008.2
20260504180807 70 232 8.7 13.9 0.00 0.00 0.00 43 1008.0
20260504180305 69 182 4.3 13.0 0.00 0.00 0.00 42 1008.2
20260504175803 69 55 4.3 10.4 0.00 0.00 0.00 43 1008.1
20260504175259 69 231 6.1 10.4 0.00 0.00 0.00 42 1008.1
20260504174757 69 310 7.0 13.9 0.00 0.00 0.00 41 1008.2
20260504174255 68 247 7.8 10.4 0.00 0.00 0.00 47 1008.3
20260504173751 68 124 5.2 13.0 0.00 0.00 0.00 42 1008.2
20260504173248 69 165 4.3 7.0 0.00 0.00 0.00 42 1008.3
20260504172745 68 152 4.3 9.6 0.00 0.00 0.00 44 1008.3
20260504172242 68 168 6.1 13.0 0.00 0.00 0.00 42 1008.6
20260504171738 68 205 4.3 10.4 0.00 0.00 0.00 43 1008.3
20260504171235 68 286 4.3 8.7 0.00 0.00 0.00 46 1008.5
20260504170732 68 126 1.7 9.6 0.00 0.00 0.00 45 1008.6
20260504170229 68 166 7.0 13.0 0.00 0.00 0.00 43 1008.5
20260504160147 65 217 4.3 13.0 0.00 0.00 0.00 45 1009.3
20260504151115 63 265 7.0 10.4 0.00 0.00 0.00 47 1009.9
20260504150613 62 214 6.1 13.0 0.00 0.00 0.00 50 1009.7
20260504150109 62 242 7.0 13.0 0.00 0.00 0.00 49 1009.8
20260504141038 60 216 3.5 7.0 0.00 0.00 0.00 48 1009.7
20260504140534 60 63 0.9 9.6 0.00 0.00 0.00 50 1009.9
20260504130459 57 237 2.6 7.0 0.00 0.00 0.00 50 1010.3
20260504110345 51 208 3.5 4.3 0.00 0.00 0.00 56 1010.3
20260504100303 49 229 2.6 3.5 0.00 0.00 0.00 58 1010.1
20260504081656 51 221 2.6 6.1 0.00 0.00 0.00 54 1010.8
20260504081152 51 170 2.6 6.1 0.00 0.00 0.00 53 1010.8
20260504080649 51 142 2.6 8.7 0.00 0.00 0.00 53 1010.8
20260504080145 51 218 3.5 7.0 0.00 0.00 0.00 54 1010.9
20260504070113 51 258 7.0 10.4 0.00 0.00 0.00 53 1011.8
20260504050502 50 195 2.6 3.5 0.00 0.00 0.00 58 1013.1
20260504045959 50 228 1.7 4.3 0.00 0.00 0.00 58 1013.1
20260504045455 50 180 1.7 2.6 0.00 0.00 0.00 58 1013.1
20260504044951 50 212 0.9 0.9 0.00 0.00 0.00 58 1013.0
20260504044448 50 144 2.6 3.5 0.00 0.00 0.00 58 1013.1
20260504043946 50 215 0.9 6.1 0.00 0.00 0.00 57 1013.1
20260504043442 50 189 2.6 3.5 0.00 0.00 0.00 57 1013.2
20260504042940 50 167 1.7 3.5 0.00 0.00 0.00 57 1013.3
20260504042436 50 216 4.3 4.3 0.00 0.00 0.00 56 1013.4
20260504041933 50 196 0.9 2.6 0.00 0.00 0.00 57 1013.3
20260504041429 50 191 0.9 2.6 0.00 0.00 0.00 56 1013.2
20260504040925 50 214 1.7 3.5 0.00 0.00 0.00 56 1013.4
20260504040424 51 200 0.9 0.9 0.00 0.00 0.00 56 1013.4
20260504035919 51 203 1.7 2.6 0.00 0.00 0.00 55 1013.4
20260504035417 51 222 2.6 2.6 0.00 0.00 0.00 55 1013.5
20260504034914 51 195 1.7 0.9 0.00 0.00 0.00 55 1013.4
20260504034412 51 213 0.9 0.9 0.00 0.00 0.00 56 1013.4
20260504033908 51 214 1.7 0.9 0.00 0.00 0.00 54 1013.5
20260504033406 51 226 1.7 3.5 0.00 0.00 0.00 54 1013.7
20260504032902 51 204 2.6 3.5 0.00 0.00 0.00 54 1013.7
20260504032359 51 178 0.9 0.9 0.00 0.00 0.00 54 1013.8
20260504031855 51 212 2.6 4.3 0.00 0.00 0.00 53 1013.7
20260504031353 51 221 2.6 3.5 0.00 0.00 0.00 54 1013.8
20260504030849 51 221 2.6 4.3 0.00 0.00 0.00 52 1013.9
20260504030347 51 289 0.0 0.0 0.00 0.00 0.00 53 1014.2
20260504025842 51 297 0.9 6.1 0.00 0.00 0.00 52 1014.1
20260504025340 51 213 1.7 3.5 0.00 0.00 0.00 52 1014.0
20260504024836 51 245 1.7 6.1 0.00 0.00 0.00 52 1014.0
20260504024333 50 310 2.6 6.1 0.00 0.00 0.00 51 1014.3
20260504023829 50 241 3.5 6.1 0.00 0.00 0.00 51 1014.1
20260504023327 50 179 1.7 3.5 0.00 0.00 0.00 51 1014.3
20260504022822 50 226 3.5 4.3 0.00 0.00 0.00 51 1014.1
20260504022319 49 223 2.6 3.5 0.00 0.00 0.00 52 1014.1
20260504021816 49 211 1.7 2.6 0.00 0.00 0.00 52 1013.8
20260504021314 49 189 0.9 0.9 0.00 0.00 0.00 51 1013.8
20260504020810 49 189 0.9 0.9 0.00 0.00 0.00 51 1013.7
20260504020307 50 188 0.9 0.9 0.00 0.00 0.00 51 1013.8
20260504015802 50 189 0.9 0.9 0.00 0.00 0.00 51 1013.7
20260504015259 50 189 0.9 0.9 0.00 0.00 0.00 49 1013.7
20260504014755 50 190 0.9 0.9 0.00 0.00 0.00 49 1013.5